sat.trackr.live / text

‹ back to catalog

ONEWEB-0449

NORAD 51642 · 2022-012W

PAYLOAD ACTIVE UNKNOWN

§ Identity

Operator
Country
UK
Launch date
2022-02-10
Launch site
FRGUI
Launch vehicle
Mass (kg)
RCS (m²)

Purposes: comms

External: N2YO · Heavens-Above · Gunter

§ Orbital elements

Epoch: 2026-09-20T00:24:57.107232Z

Period
109.89 min
Inclination
87.8901°
Eccentricity
0.0001994
Mean motion
13.10368696 rev/d
Perigee alt
1,220.2 km
Apogee alt
1,223.2 km
Semi-major
7,599.9 km
B*
3.1015e-4
RAAN
17.3904°
Arg perigee
115.0087°
Mean anomaly
245.1247°
Rev number
22,172

§ Raw data

ONEWEB-04491 51642U 22012W   26263.01732763  .00000121  00000+0  31015-3 0  99992 51642  87.8901  17.3904 0001994 115.0087 245.1247 13.10368696221724

JSON: /api/v1/satellites/51642 · /tle

For live sub-satellite position, see the globe view (requires WebGL).

§ Visibility from observer

Set your observer location to see the next 7 days of passes ≥ 10°. The values pass through the URL so the page stays shareable.

No JS? Fill the form by hand. The geolocation button needs JavaScript.